#timestamp,LO_Frequency,Hit,StdDev 
1531958415.9,286046999.8,N
1531958435.7,286046998.8,N
1531958455.5,286046999.2,N
1531958475.4,286046999.2,N
1531958495.2,286047000.9,N
1531958515.0,286047000.4,N
1531958515.9,286047000.4,N
1531958535.8,286046998.5,N
1531958555.6,286047001.2,N
1531958575.5,286046998.2,N
1531958595.3,286046998.6,N
1531958615.1,286047002.8,N
1531958635.9,286047002.2,N
1531958655.7,286047000.1,N
1531958675.6,286046999.9,N
1531958695.4,286047000.0,N
1531958715.2,286046998.1,N
1531958735.1,286046999.5,N
1531958736.0,286046999.5,N
1531958755.8,286046999.1,N
1531958775.6,286046999.1,N
1531958795.5,286046998.8,N
1531958815.3,286046999.1,N
1531958835.2,286046999.1,N
1531958855.9,286046999.4,N
1531958875.7,286046997.9,N
1531958895.6,286046996.5,N
1531958915.4,286046998.9,N
1531958935.3,286046999.1,N
1531958955.1,286046999.0,N
1531958956.0,286046999.0,N
1531958975.8,286046999.6,N
1531958995.7,286046996.7,N
1531959015.5,286046998.7,N
1531959035.3,286046998.8,N
1531959055.2,286046998.9,N
1531959075.0,286046999.6,N
1531959075.9,286046999.6,N
1531959095.8,286046999.5,N
1531959115.6,286046996.6,N
1531959135.4,286046999.5,N
1531959155.3,286046999.5,N
1531959175.1,286046999.6,N
1531959195.8,286046998.8,N
1531959215.7,286046999.4,N
1531959235.5,286046999.6,N
1531959255.4,286046996.9,Y
1531959275.2,286046998.9,P
1531959295.0,286046997.1,P
1531959295.9,286046997.1,P
1531959315.8,286046999.5,N
1531959335.6,286046999.1,N
1531959355.5,286046999.3,N
1531959375.3,286046998.8,N
1531959395.1,286046999.2,N
1531959415.9,286046999.1,N
1531959435.7,286046997.6,N
1531959455.6,286046994.9,Y
1531959475.4,286046996.5,P
1531959495.2,286046996.7,P
1531959515.1,286046995.1,P
1531959516.0,286046995.1,Y
1531959535.8,286046999.9,P
1531959555.6,286047002.8,N
1531959575.5,286047001.9,N
1531959595.3,286047000.3,N
1531959615.2,286047001.9,N
1531959635.9,286047003.7,N
1531959655.7,286047002.1,N
1531959675.6,286047001.5,N
1531959695.4,286047004.2,N
1531959715.2,286047003.5,N
1531959735.1,286047004.4,N
1531959736.0,286047004.4,N
1531959755.8,286047002.0,N
1531959775.7,286047004.1,N
1531959795.5,286047001.9,N
1531959815.7,286047001.6,N
1531959835.5,286047001.3,N
1531959855.3,286047002.1,N
1531959875.2,286047002.5,N
1531959895.0,286046999.7,N
1531959895.9,286046999.7,N
1531959915.7,286047002.8,N
1531959935.6,286047001.3,N
1531959955.4,286047001.8,N
1531959975.3,286047002.5,N
1531959995.1,286047002.3,N
1531959996.0,286047002.3,N
1531960015.8,286047002.5,N
1531960035.7,286047000.4,N
1531960055.5,286047000.4,N
1531960075.4,286046999.7,N
1531960095.2,286047000.2,N
1531960115.0,286047002.8,N
1531960115.9,286047002.8,N
1531960135.8,286047000.1,N
1531960155.6,286046999.8,N
1531960175.4,286047002.4,N
1531960195.3,286047002.4,N
1531960215.1,286047001.9,N
1531960235.9,286047002.2,N
1531960255.7,286046999.7,N
1531960275.5,286047002.3,N
1531960295.4,286047002.6,N
1531960315.2,286047002.0,N
1531960335.0,286047004.3,Y
1531960335.9,286047004.3,P
1531960355.8,286047002.7,N
1531960375.6,286046999.9,N
1531960395.5,286047004.3,N
1531960415.3,286047002.3,N
1531960435.1,286046999.9,N
1531960455.9,286047000.2,N
1531960475.7,286047000.9,N
1531960495.6,286047002.2,N
1531960515.4,286047000.9,N
1531960535.2,286047000.4,N
1531960555.1,286047000.5,N
1531960556.0,286047000.5,N
1531960575.8,286047002.1,N
1531960595.6,286047001.6,N
1531960615.5,286047002.5,N
1531960635.3,286047000.0,N
1531960655.1,286047000.1,N
1531960675.9,286047002.2,N
1531960695.7,286047000.3,N
1531960715.6,286047001.2,N
1531960735.4,286047001.0,N
1531960755.2,286047000.4,N
1531960775.1,286046998.9,N
1531960776.0,286046998.9,N
1531960795.8,286046999.4,N
1531960815.7,286046998.9,N
1531960835.5,286046998.7,N
1531960855.3,286046998.6,N
1531960875.2,286047001.0,N
1531960895.0,286046998.5,N
1531960895.9,286046998.5,N
1531960915.7,286046998.4,N
1531960935.6,286046998.4,N
1531960955.4,286046999.3,N
1531960975.3,286046998.4,N
1531960995.1,286046998.3,N
1531960996.0,286046998.3,N
1531961015.8,286047000.2,N
1531961035.7,286047001.1,N
1531961055.5,286046998.3,N
1531961075.3,286046998.1,N
1531961095.2,286046998.7,N
1531961115.0,286046998.9,N
1531961115.9,286046998.9,N
1531961135.8,286046999.5,N
1531961155.6,286046996.6,Y
1531961175.4,286046996.5,P
1531961195.3,286046999.0,N
1531961215.1,286046998.9,N
1531961235.8,286046998.8,N
1531961255.7,286046998.3,N
1531961275.5,286047001.1,N
1531961295.4,286046999.8,N
1531961315.2,286047000.0,N
1531961335.0,286047000.6,N
1531961335.9,286047000.6,N
1531961355.8,286047001.0,N
1531961375.6,286046998.5,N
1531961395.4,286046998.2,N
1531961415.9,286047001.0,N
1531961435.7,286047002.2,N
1531961455.5,286046999.9,N
1531961475.4,286047000.0,N
1531961495.2,286047002.3,N
1531961515.0,286047002.5,N
1531961515.9,286047002.5,N
1531961535.8,286047002.8,N
1531961555.6,286046999.8,N
1531961575.5,286047000.6,N
1531961595.3,286047002.4,N
1531961615.1,286047002.8,N
1531961635.9,286047001.9,N
1531961655.7,286047002.6,N
1531961675.5,286047000.2,N
1531961695.4,286047002.3,N
1531961715.2,286047002.6,N
1531961735.1,286047000.2,N
1531961736.0,286047000.2,N
1531961755.8,286047000.3,N
1531961775.6,286047000.8,N
1531961795.5,286047000.2,N
1531961815.3,286047002.4,N
1531961835.1,286047000.2,N
1531961855.9,286047000.2,N
1531961875.7,286046999.8,N
1531961895.6,286047002.8,N
1531961915.4,286047001.9,N
1531961935.2,286047002.2,N
1531961955.1,286047001.0,N
1531961956.0,286047001.0,N
1531961975.8,286047000.3,N
1531961995.6,286047000.2,N
